Powrót do katalogu

TZINGHUA 1

AktywnyNaukaSSO
NORAD 26385·PAYLOAD·🇨🇳 China

Wystrzelony Jun 28, 2000 z Plesetsk Cosmodrome

Loading…

Następne Przeloty (najbliższe 24 godziny)

TLE

ŚwieżeSource: Space-Track

Epoka: Sep 14, 2026, 08:00 UTC

1 26385U 00033B   26257.33361326  .00000392  00000-0  75858-4 0  9990
2 26385  97.8921 227.5685 0014545 171.9946 188.1494 14.68345477399963

Śledź TZINGHUA 1 w czasie rzeczywistym z AllMySat

Download on the App Store